Lid_Strength_Index
14 13 12 13 13 13 14 13 16 13 14 12 12 11 11 10 9 9 8 8 8 9 9 8 7 7 6 6 6 6 6 7 7 7 7 8 8 8 8 9 9 9 9 9
16 13 13 14 13 13 13 12 13 12 13 10 11 11 11 9 9 9 9 9 8 8 8 8 8 6 6 6 6 6 7 7 7 8 8 8 9 9 10 10 10 10 10 10
19 15 15 17 15 13 13 12 12 14 11 10 11 10 9 9 10 9 9 8 8 8 8 8 8 7 6 6 6 7 7 7 7 8 9 9 9 10 10 11 11 11 11 11
19 17 23 14 13 12 12 12 11 11 11 10 9 9 9 9 9 9 8 7 8 8 8 8 8 8 7 6 7 7 7 7 8 8 9 9 10 10 11 11 11 10 10 10
19 20 16 14 14 14 14 13 11 11 10 9 8 9 10 8 8 8 8 8 8 8 8 9 8 7 7 7 7 7 8 8 8 8 9 9 10 10 11 11 11 10 10 10
15 19 20 15 12 10 11 16 10 10 10 10 10 13 11 9 8 8 7 8 8 8 8 8 8 8 7 7 7 7 7 7 7 8 8 9 9 10 11 11 10 11 12 11
16 18 15 12 11 10 17 16 11 10 11 11 11 11 9 9 8 8 7 7 7 8 8 8 8 8 8 8 8 7 7 7 8 8 8 9 10 11 12 11 11 12 11 11
15 17 18 11 11 14 12 11 10 10 11 10 10 9 8 8 8 8 8 7 7 8 8 8 8 8 8 8 8 7 8 8 9 9 9 10 11 11 10 11 11 11 11 12
14 14 11 11 10 11 10 11 10 10 10 9 9 9 8 8 8 8 8 7 7 8 8 8 8 8 8 8 8 8 9 9 9 10 10 10 11 11 11 11 11 12 13 12
13 12 12 11 10 10 10 10 9 9 9 9 9 9 9 9 8 8 8 7 7 8 8 7 7 8 8 8 7 8 9 10 10 11 11 11 10 11 11 11 12 12 13 13
14 13 12 11 11 10 9 9 9 9 9 9 9 9 9 8 8 8 8 7 7 6 6 6 5 6 7 7 8 9 9 9 10 10 9 10 10 11 11 10 10 11 12 12
15 12 12 12 11 10 10 10 9 9 9 8 9 9 8 8 7 7 7 7 7 7 7 7 7 6 6 6 8 9 10 10 10 10 9 9 10 10 8 8 8 8 9 10
13 12 11 11 10 10 10 9 8 9 9 9 7 7 6 7 7 6 7 7 7 8 7 8 7 7 7 7 7 8 9 9 9 8 9 10 10 11 11 11 8 8 8 8
11 11 12 11 12 11 10 9 9 10 9 8 8 8 8 8 7 7 8 7 8 8 8 8 8 8 7 8 8 8 8 8 9 9 10 10 10 11 11 12 12 12 9 9
12 11 11 12 12 11 11 10 11 11 10 10 9 9 8 8 8 8 7 7 7 7 8 8 8 8 8 9 9 10 10 11 10 10 11 10 11 11 10 11 11 11 11 9
12 11 11 12 12 12 12 12 12 12 11 11 11 10 9 9 9 8 8 8 8 8 7 7 7 8 9 10 11 11 11 10 10 11 10 10 10 10 11 11 11 11 11 11
13 14 13 14 13 13 13 12 12 12 11 11 11 10 10 9 9 10 9 9 9 9 8 8 9 8 9 10 11 12 12 12 11 12 11 10 10 10 10 11 11 11 10 10
12 12 12 12 13 13 13 12 12 12 12 11 10 10 9 10 10 10 9 9 9 9 10 10 10 9 8 9 11 11 11 11 12 12 12 11 10 10 10 10 10 11 10 10
13 13 13 13 13 13 12 12 12 11 11 11 11 10 10 9 9 8 8 9 9 10 10 11 9 9 10 10 9 11 12 12 12 11 11 11 10 10 10 10 10 10 10 11
14 13 12 13 12 12 12 12 13 13 12 11 10 10 10 9 10 9 9 9 8 8 8 9 10 11 11 10 9 10 11 11 11 12 12 12 11 10 10 10 10 11 11 11
14 13 13 13 13 12 13 13 13 13 11 11 11 11 11 10 10 9 10 9 7 6 7 7 9 10 11 10 10 11 10 11 12 12 12 13 12 11 11 11 11 11 11 11
15 15 14 14 14 14 13 13 12 12 11 12 12 11 11 11 11 10 8 8 7 4 5 6 8 8 9 8 9 10 11 11 11 12 12 12 12 12 12 12 12 12 12 12
15 14 14 14 14 14 14 13 11 11 12 12 12 11 11 11 10 10 9 7 6 5 5 7 6 6 7 8 11 11 11 11 11 12 12 12 12 12 12 13 13 12 13 15
15 15 16 14 17 16 14 11 12 11 12 11 11 11 11 12 11 10 7 5 4 4 5 5 6 5 6 8 10 12 12 11 12 12 12 11 13 13 13 13 13 13 13 13
15 16 18 17 15 13 12 12 13 12 12 12 12 12 11 11 12 9 9 7 4 5 5 4 4 5 7 9 11 12 12 13 12 13 13 14 13 14 13 13 13 13 13 14
16 15 15 13 12 11 11 12 12 12 12 12 11 11 11 11 11 8 8 6 7 6 6 6 6 7 8 9 11 11 12 13 12 13 13 14 14 14 14 14 14 14 14 14
17 13 14 12 12 12 12 12 11 12 11 11 11 10 11 10 9 8 7 9 8 7 7 7 7 7 8 9 10 11 12 12 12 13 14 15 15 15 15 15 15 15 14 14